Regional Weather Roundup
Issued by NWS

Home | Current Version | Previous Version | Text Only | Print | Product List | Glossary Off
Versions: 1 2 3 4 5 6 7 8 9 10 11 12 13 14 15 16 17 18 19 20 21 22 23 24 25 26 27 28 29 30 31 32 33 34 35 36 37 38 39 40 41 42 43 44 45 46 47 48 49 50

000
ASUS45 KBOI 090610
RWRID
WEATHER ROUNDUP FOR IDAHO
NATIONAL WEATHER SERVICE BOISE ID
1200 AM MDT WED JUL 09 2014

NOTE: "FAIR" INDICATES FEW OR NO CLOUDS BELOW 12000 FEET
WITH NO SIGNIFICANT WEATHER AND/OR OBSTRUCTIONS TO VISIBILITY

IDZ012-014-090700-
SOUTHWEST IDAHO


CITY           SKY/WX    TMP DP  RH WIND       PRES   REMARKS
BOISE          PTCLDY    82  47  29 NW5       29.89S
CALDWELL       PTCLDY    75  54  46 W3        29.89F
MOUNTAIN HOME  PTCLDY    76  35  22 NW6       29.89S
$$

IDZ016-017-090700-
SOUTHCENTRAL IDAHO


CITY           SKY/WX    TMP DP  RH WIND       PRES   REMARKS
BURLEY         CLEAR     64  48  56 SW8       29.97S
JEROME         CLEAR     73  42  32 S6        29.97R
TWIN FALLS     CLEAR     76  35  22 S14       29.97S
$$

IDZ019>023-090700-
SOUTHEAST IDAHO


CITY           SKY/WX    TMP DP  RH WIND       PRES   REMARKS
IDAHO FALLS    PTCLDY    74  42  31 S6        30.02S
POCATELLO      CLEAR     66  32  28 S10       30.00F
REXBURG        PTCLDY    74  40  29 S6        30.02F
$$

IDZ006-010-011-018-031-032-090700-
CENTRAL IDAHO MOUNTAINS


CITY           SKY/WX    TMP DP  RH WIND       PRES   REMARKS
MCCALL         PTCLDY    72  45  37 N6        30.07S
HAILEY         PTCLDY    66  41  39 NW9       30.06R
STANLEY          N/A     57  41  55 CALM      30.20R
SALMON         CLEAR     68  48  49 S3        29.97R
CHALLIS        CLEAR     73  40  30 NW7       30.04R
$$

IDZ002-004-006-007-026-090700-
NORTHERN IDAHO


CITY           SKY/WX    TMP DP  RH WIND       PRES   REMARKS
LEWISTON       CLEAR     81  47  30 CALM      29.86R
LOWELL           N/A     65  57  75 N3        29.92R
COEUR D`ALENE  CLEAR     70  57  64 E5        29.91S
MULLAN PASS    CLEAR     63  43  48 NW5       30.17S
$$


USA.gov is the U.S. government's official web portal to all federal, state and local government web resources and services.